Location: Stoke Bliss
(52.2667°N, 2.5167°W)
Time: 19:54:23
(UTC+00:00)

USA 305 - Pass Details

Date: 03 March 2021
Orbit: 567 x 574 km, 54.0° (Epoch: 13 April)

Event Time Altitude Azimuth Distance (km) Brightness Sun altitude
Rises 19:43:10 0° 276° (W) 2,781 8.1 -17.5°
Reaches altitude 10° 19:45:26 10° 279° (W) 1,881 6.8 -17.8°
Maximum altitude 19:49:42 69° 3° (N) 615 3.0 -18.5°
Enters shadow 19:51:05 41° 74° (ENE) 842 3.3 -18.7°
